Temp
7 7 7 6 6 6 6 6 6 6 6 6 6 6 6 6 5 5 5 5 5 5 5 5 5 4 4 4 4 3 3 3 3 3 3 3 3 3 3 3 2 2 2 2 2 2 2 3 3 3 3 3 3 3 3 3 3 3 3 3 3 3 3
7 6 6 6 6 6 6 6 6 6 6 6 6 6 6 6 5 5 5 5 5 5 5 5 5 4 4 4 4 4 3 3 3 3 3 3 3 3 3 2 2 2 2 2 2 2 2 3 3 3 3 3 3 3 3 3 3 3 3 3 3 3 3
6 6 6 6 6 6 6 6 6 6 6 6 5 5 5 5 5 5 5 5 5 5 5 5 5 4 4 4 4 4 4 3 3 3 3 3 3 3 3 3 2 2 2 2 2 2 2 3 3 3 3 3 3 3 3 3 3 3 3 3 3 3 3
6 6 6 6 6 6 6 6 6 6 6 6 5 5 5 5 5 5 5 5 5 5 4 4 4 4 4 4 4 4 3 3 3 3 3 3 3 3 3 3 2 2 2 2 1 2 2 2 3 3 3 3 3 3 3 3 3 2 3 3 3 3 3
6 6 6 6 6 6 6 6 6 6 6 5 5 5 5 5 5 5 4 4 4 4 4 4 4 4 4 4 4 4 3 3 3 3 3 3 3 3 3 3 2 2 2 2 1 1 1 2 2 3 3 2 3 3 3 3 3 3 3 3 3 3 3
7 7 6 6 6 6 6 5 5 5 5 5 5 5 5 5 5 5 5 5 4 4 4 4 3 3 3 3 4 3 3 3 3 3 3 3 3 3 3 3 3 3 2 2 1 1 1 2 2 2 3 2 2 2 2 2 3 3 3 3 3 3 3
7 6 6 6 6 6 6 5 5 5 5 5 5 5 5 5 5 5 5 5 5 4 4 3 3 3 3 3 3 3 3 3 3 3 3 3 3 3 3 3 3 3 2 1 1 1 1 2 2 3 3 2 2 2 3 2 3 3 3 3 3 3 3
6 6 6 6 6 6 6 5 5 5 5 5 5 5 5 5 5 5 5 5 5 4 4 3 3 3 3 3 3 3 3 3 3 3 3 3 3 3 3 3 3 3 2 1 1 1 1 2 2 3 3 2 3 3 3 3 3 3 3 3 3 3 3
6 6 6 6 6 6 5 5 5 5 6 6 6 5 5 5 5 5 5 5 5 4 4 3 3 3 3 3 3 3 3 2 2 3 3 3 3 3 3 3 3 3 2 1 1 1 1 2 2 2 2 2 3 3 3 3 3 3 3 3 3 3 3
6 6 6 6 6 5 5 5 5 6 6 6 6 5 5 5 5 5 5 5 4 4 4 4 3 3 3 3 3 3 3 2 3 3 3 3 3 3 3 3 2 2 2 1 1 1 1 2 2 2 2 2 3 3 3 3 3 3 3 3 3 3 3
6 6 6 6 5 5 5 5 5 6 6 6 6 5 5 5 5 5 5 5 4 3 3 3 3 3 3 3 3 3 3 3 3 3 3 3 3 3 3 3 2 2 1 2 1 1 2 2 2 2 2 2 2 3 3 3 3 3 3 3 3 3 3
6 6 6 5 5 5 5 5 6 6 6 6 6 5 5 5 5 5 5 5 4 3 3 3 3 3 3 3 3 3 3 3 3 3 3 3 3 3 3 3 2 2 2 2 1 1 2 2 2 2 2 2 2 2 3 2 3 3 2 2 2 2 3
6 6 5 5 5 5 5 6 6 6 6 6 6 5 5 5 5 5 5 5 4 3 3 3 3 3 3 3 3 3 3 3 3 3 3 3 3 3 3 3 2 2 2 2 2 2 2 2 2 2 2 2 2 2 2 2 3 3 2 2 2 2 2
6 5 5 5 5 5 6 6 6 6 6 6 6 5 5 5 5 5 5 5 4 3 3 3 3 3 3 3 3 3 3 3 3 3 3 3 3 3 3 3 3 2 2 2 2 2 2 2 2 2 2 2 2 2 2 2 2 2 2 2 2 2 2
5 5 5 5 5 5 6 6 6 6 6 6 6 6 5 5 6 5 6 5 4 3 3 3 3 3 3 3 3 3 3 4 4 3 3 3 3 3 2 3 3 3 3 2 2 2 2 2 2 2 2 2 2 2 2 2 2 2 2 2 2 3 2
5 5 5 5 5 5 6 6 6 6 6 5 5 6 6 6 6 6 6 5 4 4 3 3 3 3 3 3 3 3 4 4 4 4 4 3 3 3 2 3 3 3 3 3 2 2 2 2 2 2 1 1 1 1 1 1 1 2 2 2 2 3 2
5 5 5 5 5 5 5 5 5 5 5 5 5 6 6 6 6 6 6 5 5 4 4 4 3 3 3 3 3 3 3 4 4 3 3 3 3 3 3 3 3 3 2 2 2 2 2 2 2 1 1 1 1 1 1 1 1 1 2 2 2 2 2
5 5 5 5 5 5 5 5 5 5 5 5 5 6 6 6 6 6 6 6 5 4 4 3 3 3 3 3 3 3 3 3 3 3 3 3 3 3 2 2 2 2 2 2 2 2 2 1 1 1 1 1 1 1 1 1 1 1 1 1 1 2 2
5 5 5 5 5 5 5 5 5 5 6 6 6 6 6 6 6 6 5 5 5 4 3 3 3 3 3 3 3 3 3 3 3 3 3 3 2 2 2 2 2 2 2 2 2 2 2 1 1 1 1 1 1 1 1 1 1 1 1 1 1 1 2
5 5 5 5 5 5 5 5 5 6 6 6 6 6 6 6 6 5 5 5 4 4 3 3 3 3 3 3 3 3 3 3 3 3 3 2 2 2 2 2 2 2 2 2 2 2 1 1 1 1 1 1 1 1 1 1 1 1 1 1 1 1 1
5 5 5 5 5 5 5 5 5 6 6 6 5 5 6 5 5 5 5 5 4 3 3 3 3 3 3 3 3 3 3 3 3 2 2 2 2 2 2 1 2 1 1 1 1 1 1 1 1 1 1 1 1 1 1 1 1 1 1 1 1 1 1
4 4 4 4 5 5 5 5 5 5 5 6 6 5 5 5 5 5 5 4 4 3 2 2 2 2 2 2 2 2 2 2 2 2 2 2 2 2 2 1 1 1 1 1 1 1 1 1 1 1 1 1 1 1 1 1 1 1 1 1 1 1 1
4 4 4 4 4 5 5 5 5 5 5 6 6 5 5 5 5 5 4 4 3 2 2 2 2 2 2 2 2 2 2 2 2 2 2 2 1 1 1 1 1 1 1 0 1 1 1 1 1 1 1 1 1 1 1 1 1 1 1 1 1 1 1
4 4 4 4 4 4 5 5 5 5 5 5 5 5 5 5 5 4 4 4 3 2 2 2 2 2 2 2 2 2 2 2 2 2 2 1 1 1 1 1 1 1 0 0 0 1 1 1 1 1 1 1 1 1 1 1 1 1 1 1 1 1 1
4 4 4 4 4 4 4 5 5 5 5 5 5 5 5 5 4 4 4 3 2 2 2 2 2 2 2 2 2 2 2 2 2 2 2 1 1 1 1 1 1 1 0 0 0 1 1 1 1 0 1 1 1 1 1 1 1 1 1 1 0 0 1
3 3 4 4 4 4 4 5 5 5 5 5 5 5 4 4 4 3 3 3 2 2 2 2 2 2 1 2 1 1 1 1 1 1 1 1 1 1 1 1 1 1 0 0 0 1 1 1 1 0 0 0 1 1 1 1 1 1 1 1 1 1 1
3 3 3 4 4 4 4 4 4 4 4 4 4 4 4 4 3 3 2 2 2 2 1 1 1 1 1 1 1 1 1 1 1 1 1 1 1 1 1 1 0 0 0 0 0 0 0 0 0 0 0 0 0 0 1 1 1 0 0 0 1 1 1
3 3 3 3 4 4 4 4 4 4 4 4 3 3 3 3 2 2 2 1 1 1 1 1 1 1 1 1 1 1 1 1 1 1 1 1 1 1 1 0 0 -0 -0 0 0 0 0 0 0 0 0 0 0 0 0 0 0 0 0 0 0 1 1
3 3 3 3 3 3 4 4 4 4 4 3 3 3 2 2 1 1 1 0 -0 0 0 0 1 1 1 1 1 1 1 1 1 1 0 0 0 0 1 0 0 0 -0 -0 -0 0 0 0 0 0 0 0 0 0 0 0 0 -0 0 0 0 0 0
2 2 3 3 3 3 3 3 3 3 3 3 3 2 2 1 1 1 -0 -0 -0 -0 -0 -0 0 1 1 1 1 1 1 1 1 1 0 -0 0 0 1 1 0 0 0 -0 -0 -0 -0 -0 0 0 0 0 0 0 0 0 -0 -0 0 0 -0 0 0
2 2 2 2 2 3 3 3 2 2 2 2 2 2 1 1 1 1 0 0 0 0 0 0 0 0 1 1 1 1 1 0 0 0 0 0 0 1 1 1 0 0 0 -0 -0 -0 -0 -0 -0 -0 -0 -0 -0 -0 -0 -0 -0 0 0 0 0 0 0
1 2 2 2 2 2 2 2 1 1 1 1 1 1 1 1 1 1 1 1 0 0 0 -0 -0 -0 0 0 0 1 0 0 -0 0 0 0 0 0 1 1 0 0 0 0 -0 -0 -0 -0 -1 -1 -1 -1 -1 -1 -1 -0 -0 -0 -0 -0 -0 -0 -0
1 1 1 1 1 1 1 0 0 0 0 0 0 0 0 1 1 1 0 0 0 -0 -1 -1 -1 -0 -0 -0 -0 0 -0 -0 -0 0 0 0 -0 -0 -0 -0 -0 -0 -0 -0 -0 -0 -0 -1 -1 -1 -1 -1 -1 -1 -1 -1 -1 -1 -1 -1 -1 -1 -1
1 1 1 1 1 0 -0 -0 -0 -0 -0 -0 -0 -0 -0 -0 0 0 -0 -0 -1 -1 -1 -1 -1 -1 -1 -1 -0 -1 -1 -1 -0 0 -0 -1 -1 -1 -1 -1 -1 -1 -1 -1 -0 -0 -1 -1 -1 -1 -1 -1 -1 -1 -1 -1 -1 -1 -1 -1 -1 -1 -1
0 0 0 0 0 -0 -1 -1 -1 -1 -1 -1 -1 -1 -1 -1 -1 -1 -1 -1 -1 -1 -1 -1 -1 -1 -1 -1 -1 -1 -1 -1 -0 -1 -1 -1 -1 -1 -1 -1 -1 -1 -1 -1 -1 -1 -1 -1 -1 -1 -1 -1 -1 -1 -1 -1 -1 -2 -2 -2 -2 -2 -2
-0 -0 -0 -0 -1 -1 -1 -1 -1 -1 -1 -1 -1 -1 -1 -1 -1 -1 -1 -1 -2 -1 -1 -1 -1 -1 -1 -1 -1 -1 -1 -1 -1 -1 -1 -1 -1 -1 -1 -1 -1 -1 -1 -1 -1 -1 -1 -1 -1 -1 -1 -1 -1 -1 -1 -1 -1 -1 -2 -2 -2 -2 -2
-1 -1 -1 -1 -1 -1 -2 -2 -2 -1 -1 -1 -1 -1 -2 -2 -2 -1 -2 -2 -2 -2 -2 -1 -1 -1 -1 -1 -1 -1 -1 -1 -1 -1 -1 -1 -1 -1 -1 -1 -1 -1 -1 -1 -1 -1 -1 -1 -1 -1 -1 -1 -1 -1 -1 -1 -1 -1 -2 -2 -2 -2 -2
Height
3150 3149 3148 3147 3146 3145 3144 3144 3144 3143 3142 3142 3141 3140 3138 3137 3135 3133 3132 3131 3130 3129 3128 3127 3125 3125 3124 3123 3122 3121 3120 3119 3118 3118 3118 3117 3116 3116 3115 3115 3115 3116 3117 3118 3118 3119 3120 3122 3123 3124 3125 3126 3127 3128 3130 3131 3132 3134 3135 3136 3137 3138 3139
3148 3147 3147 3145 3144 3143 3142 3141 3141 3140 3139 3139 3138 3136 3135 3134 3132 3131 3130 3129 3128 3127 3125 3124 3123 3122 3121 3120 3119 3117 3116 3115 3114 3114 3114 3114 3113 3113 3113 3112 3112 3113 3114 3115 3115 3116 3118 3119 3120 3121 3123 3123 3124 3126 3127 3128 3130 3132 3133 3134 3135 3136 3137
3146 3145 3144 3143 3142 3140 3139 3138 3138 3138 3136 3136 3135 3134 3132 3131 3129 3128 3127 3126 3125 3124 3122 3121 3119 3118 3117 3116 3115 3114 3112 3112 3111 3110 3110 3110 3110 3110 3110 3110 3109 3110 3111 3111 3112 3113 3115 3116 3117 3119 3120 3121 3123 3124 3126 3127 3128 3130 3131 3132 3133 3134 3135
3143 3142 3141 3140 3139 3138 3137 3135 3135 3134 3133 3132 3132 3131 3129 3128 3126 3125 3124 3122 3121 3120 3119 3117 3115 3114 3113 3111 3110 3110 3109 3108 3107 3107 3106 3107 3107 3106 3106 3107 3107 3107 3107 3107 3109 3110 3112 3114 3115 3117 3118 3119 3121 3122 3123 3125 3126 3127 3128 3130 3131 3132 3133
3141 3140 3139 3138 3137 3136 3135 3133 3132 3131 3130 3129 3128 3127 3126 3125 3123 3121 3119 3118 3117 3116 3114 3112 3111 3110 3109 3107 3106 3105 3105 3104 3103 3102 3102 3102 3103 3103 3103 3103 3103 3104 3103 3103 3104 3106 3108 3111 3113 3114 3116 3117 3118 3119 3121 3122 3123 3124 3126 3127 3129 3130 3131
3139 3138 3137 3136 3135 3134 3133 3131 3129 3128 3127 3125 3124 3123 3123 3121 3119 3117 3115 3114 3112 3111 3109 3108 3106 3105 3104 3102 3101 3101 3100 3100 3099 3099 3098 3098 3099 3100 3099 3099 3100 3100 3099 3099 3100 3102 3104 3107 3109 3111 3113 3114 3115 3117 3118 3120 3121 3122 3123 3125 3127 3128 3128
3137 3136 3135 3134 3133 3132 3131 3129 3128 3126 3124 3123 3121 3120 3119 3118 3117 3114 3112 3111 3108 3107 3105 3103 3102 3100 3099 3097 3096 3095 3095 3096 3096 3095 3095 3095 3096 3097 3096 3096 3096 3096 3096 3096 3097 3098 3101 3103 3105 3107 3109 3111 3112 3113 3115 3117 3118 3119 3121 3123 3125 3125 3126
3134 3134 3133 3132 3131 3130 3129 3127 3126 3124 3122 3121 3119 3118 3117 3115 3114 3112 3110 3108 3106 3103 3101 3100 3097 3095 3094 3092 3090 3090 3090 3091 3091 3092 3093 3093 3093 3093 3093 3093 3093 3092 3092 3092 3093 3095 3098 3100 3102 3104 3106 3108 3109 3111 3113 3114 3115 3117 3119 3121 3122 3123 3124
3132 3132 3131 3130 3129 3128 3127 3125 3124 3122 3120 3119 3118 3116 3115 3113 3111 3109 3107 3105 3103 3100 3098 3096 3093 3091 3089 3087 3086 3085 3085 3086 3087 3088 3090 3090 3090 3090 3090 3090 3090 3089 3089 3089 3091 3093 3095 3097 3099 3101 3103 3105 3107 3109 3111 3112 3113 3115 3117 3119 3120 3121 3122
3130 3130 3129 3128 3127 3126 3125 3123 3122 3120 3118 3117 3116 3114 3112 3110 3108 3106 3104 3102 3100 3097 3095 3093 3090 3088 3086 3084 3083 3082 3083 3084 3084 3086 3087 3087 3087 3087 3087 3088 3088 3087 3086 3087 3089 3091 3093 3095 3096 3098 3100 3103 3105 3107 3108 3110 3112 3114 3116 3117 3118 3119 3121
3129 3128 3127 3126 3125 3124 3123 3121 3119 3118 3116 3115 3114 3112 3110 3108 3106 3104 3102 3099 3097 3095 3092 3090 3088 3086 3084 3082 3081 3081 3082 3082 3083 3084 3085 3085 3085 3085 3084 3085 3085 3084 3084 3086 3087 3089 3091 3093 3094 3096 3099 3101 3103 3104 3106 3108 3110 3112 3114 3115 3116 3118 3119
3127 3126 3125 3124 3123 3122 3121 3119 3118 3116 3115 3113 3111 3110 3108 3106 3104 3102 3099 3097 3094 3092 3090 3088 3086 3085 3083 3082 3081 3080 3081 3081 3082 3083 3083 3083 3084 3083 3083 3084 3083 3083 3082 3083 3086 3088 3089 3091 3093 3094 3096 3098 3100 3102 3104 3106 3108 3109 3111 3113 3114 3116 3117
3125 3124 3123 3122 3121 3120 3119 3118 3116 3115 3113 3111 3110 3108 3106 3104 3102 3100 3098 3095 3092 3090 3088 3086 3085 3084 3083 3081 3080 3080 3080 3080 3081 3082 3082 3082 3082 3082 3081 3082 3082 3082 3082 3082 3084 3086 3088 3090 3091 3093 3094 3096 3097 3100 3102 3104 3106 3107 3109 3110 3112 3114 3115
3123 3122 3121 3120 3119 3119 3117 3116 3115 3113 3112 3110 3108 3106 3105 3102 3100 3098 3096 3093 3090 3088 3087 3085 3084 3083 3081 3080 3080 3079 3079 3079 3080 3080 3080 3080 3081 3080 3080 3080 3080 3081 3082 3082 3083 3085 3086 3088 3090 3091 3093 3094 3095 3098 3100 3101 3103 3105 3107 3108 3110 3111 3113
3121 3121 3120 3119 3118 3117 3116 3115 3113 3112 3110 3109 3107 3105 3103 3101 3098 3096 3094 3091 3088 3086 3085 3084 3083 3082 3080 3079 3078 3078 3078 3078 3078 3079 3079 3079 3080 3079 3078 3078 3079 3079 3080 3081 3082 3084 3085 3087 3088 3090 3091 3092 3094 3096 3097 3099 3101 3103 3105 3107 3108 3110 3110
3120 3119 3118 3117 3117 3116 3115 3113 3112 3110 3109 3107 3105 3103 3101 3099 3096 3094 3092 3089 3087 3085 3084 3083 3082 3081 3079 3078 3077 3077 3076 3077 3076 3077 3077 3078 3078 3078 3077 3077 3077 3078 3078 3079 3080 3082 3083 3085 3086 3088 3089 3090 3092 3093 3095 3098 3100 3101 3103 3104 3106 3107 3108
3118 3118 3117 3116 3115 3115 3113 3112 3110 3108 3107 3106 3104 3101 3099 3097 3095 3093 3091 3088 3086 3084 3082 3082 3081 3080 3079 3077 3076 3076 3076 3076 3075 3075 3075 3076 3076 3076 3076 3075 3076 3076 3077 3078 3079 3080 3082 3083 3084 3086 3087 3088 3090 3091 3094 3096 3097 3099 3100 3101 3103 3105 3106
3117 3116 3116 3115 3114 3113 3112 3110 3109 3107 3106 3104 3102 3100 3098 3095 3093 3091 3089 3087 3085 3083 3081 3081 3080 3079 3078 3077 3076 3076 3076 3076 3075 3075 3074 3074 3074 3075 3074 3074 3074 3075 3075 3076 3077 3079 3080 3081 3082 3084 3085 3086 3088 3090 3092 3093 3095 3096 3098 3099 3101 3103 3104
3116 3115 3115 3114 3113 3112 3110 3109 3108 3106 3105 3103 3101 3098 3096 3094 3092 3090 3088 3086 3084 3082 3081 3080 3080 3079 3077 3077 3076 3075 3075 3075 3074 3074 3073 3073 3073 3073 3073 3073 3073 3074 3074 3075 3077 3078 3079 3080 3081 3082 3083 3084 3086 3087 3089 3091 3092 3094 3095 3097 3099 3101 3102
3115 3114 3113 3113 3112 3111 3109 3108 3106 3105 3103 3101 3099 3097 3095 3093 3091 3089 3087 3085 3083 3082 3081 3080 3079 3078 3077 3076 3075 3074 3074 3074 3073 3073 3072 3072 3072 3072 3071 3071 3071 3072 3073 3074 3075 3077 3077 3078 3080 3081 3082 3083 3084 3085 3087 3088 3090 3091 3092 3094 3096 3098 3099
3114 3113 3112 3112 3111 3110 3108 3107 3105 3103 3101 3100 3098 3096 3094 3092 3090 3088 3086 3084 3083 3081 3080 3079 3078 3077 3077 3076 3074 3074 3074 3073 3073 3072 3071 3071 3071 3070 3070 3070 3070 3071 3072 3073 3074 3075 3075 3076 3077 3079 3080 3082 3083 3083 3084 3086 3087 3088 3090 3091 3092 3094 3096
3113 3112 3111 3111 3110 3108 3107 3106 3104 3102 3100 3098 3096 3094 3092 3091 3089 3087 3085 3084 3082 3081 3080 3079 3078 3077 3076 3075 3074 3073 3073 3073 3072 3072 3071 3070 3070 3069 3069 3069 3070 3071 3071 3072 3072 3073 3074 3074 3075 3077 3078 3079 3080 3081 3082 3083 3084 3085 3087 3088 3089 3091 3092
3111 3111 3110 3109 3108 3107 3106 3105 3103 3101 3099 3097 3095 3093 3091 3090 3088 3086 3084 3083 3081 3080 3079 3078 3077 3076 3075 3074 3073 3072 3072 3072 3071 3071 3070 3070 3069 3069 3069 3069 3069 3070 3070 3071 3071 3071 3072 3073 3074 3074 3075 3076 3077 3078 3079 3081 3082 3083 3085 3086 3087 3088 3089
3110 3109 3109 3108 3107 3106 3105 3103 3102 3100 3098 3096 3094 3092 3090 3089 3087 3085 3083 3082 3081 3079 3078 3077 3076 3075 3074 3073 3072 3071 3071 3071 3070 3070 3070 3069 3068 3068 3068 3068 3068 3068 3069 3070 3069 3069 3069 3071 3072 3072 3073 3074 3075 3076 3077 3078 3079 3080 3082 3083 3084 3086 3087
3108 3108 3107 3107 3106 3105 3103 3102 3101 3099 3097 3095 3093 3091 3089 3087 3086 3084 3083 3081 3080 3078 3077 3076 3075 3074 3073 3072 3072 3071 3071 3070 3070 3069 3069 3068 3067 3067 3067 3067 3067 3067 3068 3068 3067 3067 3068 3069 3070 3071 3071 3072 3072 3073 3075 3076 3077 3078 3079 3080 3082 3083 3085
3106 3106 3106 3105 3104 3103 3102 3101 3099 3098 3096 3094 3092 3090 3088 3086 3085 3084 3082 3080 3079 3078 3077 3076 3075 3074 3073 3072 3072 3071 3070 3070 3069 3068 3068 3067 3067 3066 3066 3066 3066 3066 3066 3066 3066 3066 3066 3067 3068 3068 3069 3069 3070 3071 3072 3073 3075 3076 3077 3078 3079 3080 3082
3105 3104 3104 3103 3103 3102 3101 3099 3098 3097 3095 3093 3091 3089 3087 3085 3084 3083 3081 3080 3078 3077 3077 3076 3075 3074 3073 3072 3071 3070 3070 3069 3068 3068 3067 3067 3066 3066 3065 3065 3065 3065 3065 3065 3065 3065 3065 3066 3066 3066 3067 3067 3068 3069 3070 3071 3073 3074 3075 3076 3077 3078 3079
3103 3103 3102 3102 3101 3100 3099 3098 3097 3095 3094 3092 3091 3089 3087 3085 3084 3082 3081 3080 3078 3077 3077 3076 3075 3074 3073 3072 3071 3070 3069 3068 3068 3067 3066 3066 3065 3065 3065 3064 3064 3064 3064 3064 3064 3064 3064 3064 3064 3064 3065 3066 3066 3067 3068 3070 3071 3072 3073 3074 3075 3075 3076
3101 3101 3100 3100 3099 3098 3097 3097 3095 3094 3093 3091 3090 3089 3087 3085 3084 3082 3081 3080 3079 3078 3077 3076 3075 3074 3073 3072 3070 3069 3068 3068 3067 3066 3065 3064 3064 3063 3063 3063 3063 3063 3063 3063 3063 3063 3063 3063 3063 3063 3063 3064 3064 3065 3066 3068 3069 3070 3071 3072 3073 3074 3075
3100 3099 3099 3098 3098 3097 3096 3095 3094 3093 3092 3090 3089 3088 3087 3085 3084 3083 3082 3081 3080 3079 3078 3077 3076 3075 3073 3072 3070 3069 3068 3067 3066 3065 3064 3063 3063 3063 3063 3063 3062 3062 3062 3062 3062 3061 3061 3061 3061 3062 3062 3062 3063 3064 3065 3066 3067 3068 3069 3070 3071 3072 3073
3098 3098 3097 3097 3096 3095 3094 3094 3093 3092 3090 3089 3088 3087 3086 3085 3084 3083 3082 3081 3080 3079 3078 3077 3076 3075 3074 3072 3071 3070 3068 3067 3066 3064 3063 3063 3064 3063 3062 3062 3062 3061 3061 3061 3060 3060 3060 3060 3061 3061 3062 3062 3062 3063 3064 3065 3066 3067 3068 3069 3069 3071 3071
3097 3097 3096 3096 3095 3094 3093 3092 3092 3091 3090 3089 3088 3086 3085 3084 3084 3083 3082 3081 3080 3079 3078 3077 3077 3076 3074 3073 3072 3070 3069 3067 3066 3065 3064 3064 3064 3063 3062 3061 3061 3061 3061 3060 3060 3060 3060 3061 3061 3061 3061 3062 3062 3062 3064 3065 3065 3066 3067 3067 3068 3069 3070
3096 3096 3095 3095 3094 3093 3092 3092 3091 3090 3089 3088 3087 3086 3085 3084 3083 3082 3081 3080 3079 3078 3078 3077 3076 3075 3074 3073 3072 3071 3070 3069 3067 3066 3065 3064 3064 3063 3062 3061 3061 3062 3062 3062 3061 3061 3061 3062 3062 3061 3061 3061 3061 3062 3063 3064 3065 3065 3066 3067 3067 3068 3069
3095 3094 3094 3094 3093 3092 3092 3091 3090 3089 3089 3088 3087 3086 3085 3084 3083 3082 3081 3080 3080 3079 3078 3077 3076 3075 3075 3074 3073 3071 3070 3070 3068 3066 3066 3065 3065 3064 3063 3062 3062 3063 3063 3063 3063 3063 3063 3063 3063 3063 3062 3062 3062 3062 3063 3064 3064 3065 3066 3067 3067 3068 3069
3094 3093 3093 3093 3092 3092 3091 3091 3090 3089 3088 3087 3087 3086 3085 3084 3083 3082 3082 3081 3080 3080 3079 3078 3077 3076 3075 3074 3073 3072 3071 3070 3069 3068 3067 3066 3066 3065 3064 3064 3063 3063 3063 3063 3064 3064 3064 3064 3064 3064 3063 3063 3064 3064 3064 3064 3065 3065 3066 3066 3067 3068 3069
3092 3092 3092 3092 3091 3091 3090 3090 3090 3089 3088 3087 3087 3086 3085 3084 3084 3083 3082 3082 3081 3080 3079 3078 3077 3076 3075 3075 3074 3073 3072 3071 3070 3069 3068 3067 3067 3066 3065 3065 3064 3064 3064 3064 3064 3064 3064 3064 3064 3064 3064 3064 3064 3064 3064 3064 3065 3065 3066 3066 3066 3067 3068
3091 3091 3091 3091 3091 3090 3090 3090 3089 3089 3088 3087 3086 3086 3085 3085 3084 3083 3083 3082 3082 3081 3080 3079 3078 3077 3076 3075 3075 3074 3073 3072 3071 3070 3069 3068 3067 3067 3066 3065 3065 3065 3064 3064 3064 3064 3063 3063 3063 3063 3063 3063 3063 3063 3063 3064 3064 3064 3065 3065 3065 3066 3066
Wind_Speed
11 13 15 16 17 19 20 20 20 19 19 18 17 16 16 17 19 20 21 21 22 22 24 25 26 27 27 28 29 30 31 30 29 28 26 25 25 26 27 27 26 26 27 29 27 25 26 28 27 26 25 24 24 22 22 22 22 20 19 18 17 15 15
13 14 16 17 18 20 21 21 19 19 19 19 18 18 18 19 20 21 22 22 22 23 25 26 27 28 28 28 30 31 32 32 31 30 28 27 25 25 25 26 26 24 26 29 29 27 27 28 27 25 23 23 23 22 22 22 22 21 20 19 18 17 16
14 15 16 17 18 20 21 21 19 19 21 21 19 19 19 20 22 22 23 23 24 24 26 27 28 29 29 30 30 31 32 32 32 31 30 29 28 27 25 25 25 24 26 30 31 29 28 27 27 25 24 24 23 21 21 22 22 21 20 19 19 18 17
15 15 16 17 18 19 20 21 21 21 22 22 21 20 21 22 22 23 24 25 26 26 27 28 29 29 30 31 31 31 31 32 32 32 31 31 31 30 27 25 25 25 28 31 33 32 30 28 27 26 25 24 22 21 22 21 21 21 20 20 20 19 18
15 15 16 17 17 18 20 21 23 23 24 24 23 22 22 22 23 24 26 27 28 29 29 30 30 30 31 32 33 32 32 32 32 32 32 31 30 30 28 26 26 26 30 33 34 33 30 28 27 27 26 25 23 22 22 22 22 22 21 20 20 19 19
14 15 15 16 17 19 20 21 23 24 25 25 25 24 23 23 24 25 27 29 30 31 32 32 32 32 32 34 35 34 33 32 32 31 31 30 28 27 27 26 27 28 30 31 32 32 30 29 28 28 27 26 24 23 22 22 22 22 22 21 21 20 20
14 15 16 17 18 20 21 21 23 24 25 26 26 25 25 24 24 26 28 30 32 33 33 33 33 33 34 35 36 36 35 33 32 30 29 27 26 25 25 26 27 28 29 30 30 31 30 30 29 29 28 27 27 26 23 22 22 23 23 23 22 21 21
15 16 17 18 20 21 21 21 22 23 24 25 25 26 25 25 25 27 28 30 32 33 33 32 33 33 33 34 35 35 35 33 31 29 26 24 23 23 25 25 26 28 29 29 29 29 30 30 29 28 29 28 28 27 24 23 23 23 22 23 22 22 21
16 17 18 19 21 22 22 21 21 22 23 24 25 26 26 26 27 27 29 30 32 32 32 31 31 29 29 29 29 28 28 29 28 26 23 22 21 22 23 24 24 25 25 26 26 26 28 28 28 29 29 28 28 26 25 24 23 22 22 23 23 22 22
17 18 19 20 21 22 21 21 21 22 23 24 25 26 26 26 27 28 29 30 31 30 30 29 27 25 24 24 22 21 21 23 23 22 20 20 20 20 21 20 20 20 22 25 24 25 26 26 28 29 29 28 28 27 25 24 22 20 20 21 22 21 21
18 19 20 21 21 21 21 21 21 22 23 24 25 26 26 26 27 28 29 30 29 29 28 26 24 23 22 20 17 15 16 18 19 18 18 18 18 18 19 18 17 16 20 26 25 24 25 25 27 29 29 28 28 27 26 24 22 19 19 20 20 20 20
19 20 21 21 20 19 20 20 21 22 23 24 25 26 26 26 27 27 28 28 28 26 25 23 22 21 20 17 14 13 14 16 17 16 16 17 17 17 17 17 15 13 16 23 25 24 23 24 27 29 29 29 29 28 27 25 22 21 20 20 19 18 19
19 20 20 19 18 19 19 20 20 21 22 24 25 26 26 26 26 26 26 27 26 24 22 20 20 19 18 16 13 12 14 16 17 16 16 16 16 17 17 16 14 13 14 17 21 23 21 22 25 28 29 30 30 29 28 25 24 22 21 20 20 18 19
20 19 18 17 18 18 19 19 19 20 22 23 24 25 25 26 26 25 25 26 24 22 20 18 18 18 17 15 13 13 14 16 17 18 18 18 17 17 18 17 14 14 15 16 18 21 22 22 24 25 26 28 29 29 27 26 24 23 21 21 21 20 20
18 17 16 16 17 18 18 18 19 20 21 22 24 25 25 25 25 24 25 25 23 20 18 17 16 16 16 15 14 14 15 16 18 18 18 19 19 19 19 18 16 16 16 17 19 21 22 23 24 24 25 26 27 28 28 26 24 23 22 22 22 22 23
16 15 15 15 16 16 17 18 19 20 21 23 24 25 26 25 24 24 23 23 21 19 17 16 15 15 14 14 14 15 15 16 17 18 18 19 19 19 18 18 18 18 17 18 20 22 23 24 25 26 25 25 26 28 27 25 23 23 23 24 23 23 24
15 14 14 14 15 16 17 18 20 21 22 23 24 25 25 25 24 23 22 22 20 18 17 16 15 14 13 13 13 14 15 16 16 17 17 18 17 17 17 18 18 19 19 19 19 22 24 25 26 27 27 26 27 27 25 23 23 23 24 24 24 24 25
12 12 13 13 15 16 17 19 20 22 23 23 24 25 25 25 24 23 21 20 19 18 17 15 14 14 14 13 13 14 14 15 16 15 15 15 15 15 16 17 18 19 19 18 18 20 23 24 26 27 27 27 27 25 23 23 23 24 24 24 25 25 24
11 11 12 13 15 16 18 19 21 22 23 23 24 25 25 25 24 22 20 19 18 17 16 15 14 13 13 13 13 13 14 14 14 14 14 14 14 15 15 16 17 18 19 18 18 19 22 24 24 24 25 25 25 24 23 23 24 24 24 25 24 24 24
10 11 12 13 15 16 18 19 21 22 22 23 24 24 25 25 24 22 19 18 17 16 15 13 12 13 12 12 13 13 13 13 13 13 13 13 14 14 15 16 17 18 18 18 18 19 20 22 21 21 21 22 22 23 23 23 24 24 24 24 23 23 25
10 11 12 14 15 17 18 19 20 21 22 23 24 24 24 24 23 21 18 17 15 14 13 12 11 12 12 12 12 13 13 13 13 14 14 14 13 14 15 16 17 17 18 18 17 17 19 20 20 20 21 22 23 24 24 24 23 23 23 23 23 23 25
11 12 13 14 16 17 18 19 20 21 22 23 24 24 24 24 22 20 17 15 14 12 12 11 11 12 12 12 12 11 11 12 12 13 13 13 13 14 15 15 15 15 17 17 17 18 19 20 21 21 22 22 23 24 25 24 23 23 23 24 24 24 25
12 13 14 15 16 17 18 19 19 20 22 23 24 24 24 23 22 19 16 14 12 10 10 10 10 11 12 12 11 11 11 12 11 11 10 11 12 13 14 14 14 14 15 15 17 18 19 20 21 23 23 22 22 23 24 24 24 23 23 24 25 24 25
13 14 15 15 16 18 18 19 19 20 22 23 24 24 23 22 21 17 15 13 10 9 9 10 10 10 10 11 10 10 11 12 12 11 10 10 11 12 13 14 14 15 15 15 17 18 18 18 19 22 22 22 22 23 24 24 24 24 24 23 24 24 25
14 15 16 16 17 18 18 19 19 20 21 22 23 24 23 21 19 16 13 11 9 7 8 9 9 9 9 9 9 9 10 12 13 13 12 12 12 12 12 13 14 14 13 14 16 18 18 18 18 19 20 21 22 24 25 25 25 25 24 24 24 24 24
15 16 16 16 17 18 18 19 19 20 20 21 22 23 22 20 17 14 11 9 8 7 6 7 9 9 9 9 9 9 10 12 13 13 12 12 11 10 10 11 12 12 12 13 14 15 17 18 18 19 20 21 21 22 24 24 23 23 24 25 25 24 24
15 16 16 17 17 18 18 18 19 19 19 20 20 20 20 18 15 12 10 9 9 9 6 6 7 7 8 9 9 9 10 12 13 14 13 12 11 10 10 10 11 11 12 13 14 14 14 15 17 19 20 21 21 21 21 21 21 21 21 23 24 25 25
15 15 16 16 17 17 17 17 18 18 18 18 17 16 16 16 14 11 8 5 6 8 8 6 5 6 7 8 9 8 8 9 11 12 13 13 12 11 11 11 11 12 12 14 14 14 14 15 17 18 18 19 20 20 19 19 19 19 19 21 22 24 25
15 15 15 16 16 15 15 16 17 17 16 16 16 15 13 12 12 10 7 2 1 5 6 4 4 7 9 10 11 9 8 8 9 10 11 11 9 9 11 11 11 11 12 13 14 15 14 14 16 17 17 18 19 19 18 18 17 18 19 20 20 21 22
14 14 14 14 14 13 14 14 15 15 15 15 15 14 12 9 8 7 5 2 2 3 3 3 5 9 11 12 11 10 9 8 9 9 9 7 4 4 7 8 9 10 11 10 11 12 12 11 13 13 13 14 16 17 16 16 15 16 18 18 18 19 20
14 14 13 12 11 11 12 13 13 13 13 13 13 12 10 8 7 6 6 7 7 7 8 9 10 10 10 10 10 9 8 8 9 8 7 3 3 6 9 7 7 8 6 4 5 7 9 10 9 10 12 12 12 13 13 12 12 12 14 17 18 16 17
13 12 11 9 9 9 9 10 10 11 11 11 11 10 9 8 7 7 8 9 10 10 10 11 9 6 7 9 9 9 9 10 8 7 6 6 6 7 8 7 4 3 1 1 0 2 4 3 3 3 4 6 6 8 8 9 11 10 9 13 16 15 15
11 10 9 8 8 8 7 7 8 9 9 9 9 9 9 9 8 7 7 7 7 8 8 8 6 6 7 8 9 9 10 9 8 6 7 8 7 6 7 7 5 4 4 2 2 3 2 1 4 6 4 2 1 4 3 2 5 5 4 5 10 12 13
9 9 8 7 7 6 5 6 7 7 8 8 9 9 9 9 8 7 6 7 7 7 7 7 6 7 8 8 8 9 9 8 7 7 8 8 7 6 6 7 6 5 5 4 4 5 4 2 2 2 1 2 1 3 5 3 1 1 1 2 4 5 6
8 7 7 6 5 5 5 5 6 7 7 8 9 9 8 8 7 6 6 7 6 6 6 6 7 8 8 8 9 9 9 8 9 9 8 7 6 5 4 5 4 5 5 6 6 6 5 4 5 4 4 3 2 1 3 4 3 3 4 5 5 5 5
7 7 6 5 4 4 4 5 6 7 8 8 9 8 7 6 6 5 6 6 6 6 6 7 7 8 8 8 9 8 8 8 9 9 9 7 6 4 3 2 3 4 4 5 5 5 6 6 7 7 6 6 5 5 6 7 8 9 10 11 11 11 11
6 5 4 4 3 4 4 6 7 8 8 8 8 7 6 6 5 6 6 6 6 7 7 7 7 7 7 7 7 6 7 7 7 7 7 7 6 5 4 4 4 4 4 4 4 5 6 7 8 8 8 8 9 9 9 9 11 12 12 13 15 15 16
Wind_Direction
282 287 291 294 295 296 298 299 301 304 304 305 306 301 295 290 286 285 286 287 286 283 280 280 279 276 273 272 273 273 273 272 271 269 268 270 269 267 265 263 260 260 260 254 247 243 242 242 242 243 243 240 240 239 234 235 238 242 246 245 244 242 236
285 288 291 294 296 296 297 299 302 306 305 305 306 302 298 295 291 290 289 288 287 284 283 282 282 280 277 273 271 271 271 269 269 268 267 267 269 269 267 265 262 260 259 253 245 241 240 240 239 239 240 239 240 235 230 233 237 238 242 241 241 241 236
291 294 296 296 296 297 298 301 306 308 306 306 306 303 299 295 293 292 290 288 287 285 284 282 281 280 278 275 272 271 270 269 268 267 268 269 269 269 267 265 263 259 257 253 245 241 238 237 238 236 237 239 239 236 233 237 239 239 240 240 240 240 235
298 299 300 298 299 300 302 305 308 308 307 307 306 303 299 295 293 293 292 291 290 288 286 282 279 278 277 276 273 272 271 270 268 266 266 269 269 269 269 268 267 265 262 254 244 240 238 236 238 238 238 240 239 237 234 235 237 237 238 237 237 237 233
301 302 301 301 303 305 306 307 308 308 308 309 307 304 300 297 297 297 296 296 295 293 290 287 284 281 279 277 275 273 271 269 269 268 265 265 267 270 270 268 269 272 273 261 242 235 235 234 236 238 239 242 240 236 233 232 232 231 232 233 232 233 232
302 302 302 303 304 305 305 306 307 308 308 309 307 305 302 301 301 300 300 301 300 298 296 293 289 285 282 279 276 274 271 268 267 267 265 263 264 268 268 267 270 272 274 264 241 229 230 230 230 231 232 235 235 233 231 231 232 229 226 228 230 231 231
302 302 302 303 303 302 304 305 306 307 306 305 304 303 303 303 303 303 304 305 304 303 300 297 294 289 284 280 276 273 270 267 264 262 263 264 264 265 264 265 271 271 270 260 239 228 228 227 226 226 227 228 228 229 229 228 229 227 225 227 230 229 230
303 303 302 302 302 303 304 305 306 305 303 302 300 301 303 305 306 306 307 308 307 306 304 301 298 293 288 282 278 273 269 264 260 258 260 262 261 263 263 263 271 275 266 250 234 227 226 224 225 225 223 224 225 227 229 228 227 226 225 227 228 229 230
301 302 302 303 304 305 306 305 305 304 302 300 300 302 305 307 307 308 310 312 311 310 309 307 302 297 291 286 282 276 267 258 254 256 257 258 259 261 261 262 275 279 258 235 228 228 224 221 222 222 219 220 224 227 230 230 229 229 227 226 226 228 229
301 302 303 305 306 306 306 306 305 303 301 301 301 303 306 307 309 312 314 316 314 313 314 311 308 303 298 293 288 277 263 252 250 253 255 257 258 258 258 263 278 275 244 226 226 227 223 221 219 218 217 217 222 227 229 230 230 232 233 232 230 230 228
302 303 305 308 308 306 305 303 303 303 302 303 304 305 307 310 313 316 318 318 316 316 317 315 312 309 304 299 293 276 261 253 251 254 256 255 255 253 254 262 276 272 240 225 225 227 225 222 218 216 218 220 224 227 228 228 227 227 230 233 233 233 230
302 304 307 309 306 302 300 300 302 304 305 305 306 308 311 315 318 319 320 319 316 316 318 315 312 310 305 301 295 276 261 254 252 255 254 250 249 245 247 256 265 265 247 227 222 227 228 225 221 219 219 220 224 226 225 226 224 222 224 227 228 230 230
302 305 307 306 302 299 300 303 306 307 307 308 309 311 315 318 320 321 322 319 316 316 317 312 308 307 303 300 295 278 263 256 252 254 252 249 250 245 243 251 253 249 248 233 223 225 229 228 228 226 222 219 220 223 224 225 225 222 222 224 222 222 226
302 304 304 302 300 301 303 306 307 308 309 309 311 314 317 320 321 322 323 321 316 315 316 311 306 305 301 298 294 284 272 264 258 258 257 254 256 251 244 246 247 241 240 239 231 228 226 228 232 233 228 221 218 219 222 225 226 225 224 225 221 216 218
301 302 300 299 299 301 303 306 308 309 310 312 314 316 318 320 322 323 326 324 318 314 315 311 306 305 302 297 293 285 275 270 265 261 260 258 256 254 248 244 245 244 239 238 239 235 231 232 237 238 233 227 221 219 221 225 227 227 227 227 224 219 217
299 298 297 297 299 302 304 307 309 310 312 314 314 315 317 319 322 324 327 327 320 314 313 309 305 305 305 300 295 286 276 272 267 260 260 261 256 253 250 246 244 245 245 241 240 239 236 235 238 239 235 230 224 220 222 226 229 228 227 227 226 223 219
295 294 295 298 300 304 307 309 311 312 314 314 313 313 316 318 321 325 328 328 323 315 312 310 305 303 303 302 299 292 282 275 270 265 265 266 261 251 246 244 243 244 246 244 240 239 239 237 238 239 237 233 227 223 224 229 231 230 227 226 226 223 220
291 292 295 300 302 306 309 311 313 313 313 313 313 314 316 318 321 325 328 329 324 316 312 313 310 302 300 303 303 296 287 280 276 274 270 267 262 253 244 241 241 242 244 243 241 240 241 242 242 241 238 235 230 227 228 231 232 232 229 228 228 225 223
288 293 297 301 304 308 311 312 313 313 313 314 314 316 317 318 321 325 328 329 324 316 312 315 315 307 303 307 306 298 289 283 280 276 271 266 263 258 251 245 244 244 242 241 241 241 243 245 246 242 237 233 231 232 235 236 233 230 230 229 228 227 226
289 294 298 301 305 309 312 313 314 315 315 317 317 317 318 318 321 325 327 328 323 314 309 313 315 310 307 307 304 299 290 284 281 276 271 267 264 261 257 252 248 246 245 243 242 242 244 246 245 240 236 234 236 238 240 238 232 228 229 230 229 229 230
290 294 299 302 306 311 314 315 317 317 318 319 319 319 319 320 322 324 326 326 322 313 308 308 309 306 306 305 302 301 297 288 280 275 271 268 265 262 260 258 255 252 251 250 245 242 242 244 242 239 238 238 238 238 237 234 230 229 231 233 233 232 231
287 292 298 302 307 312 315 317 318 319 320 320 319 320 320 321 323 325 325 324 320 313 307 304 303 302 301 301 300 299 297 290 282 278 278 276 271 266 263 263 261 257 256 256 253 246 242 243 245 244 241 240 239 237 234 231 230 232 234 235 235 232 229
283 289 295 300 306 311 315 317 318 320 320 320 321 322 322 322 324 325 325 324 319 311 302 300 301 300 298 297 295 293 291 288 284 283 287 288 282 277 273 269 265 259 258 258 257 253 247 246 249 249 246 244 241 237 233 231 231 231 233 236 237 234 232
281 286 291 297 304 308 312 315 317 319 320 320 321 322 322 323 325 326 323 322 319 307 298 297 299 300 299 296 292 289 285 284 284 284 285 285 284 284 282 278 272 267 262 257 253 251 249 247 248 249 248 245 242 238 235 233 233 232 231 233 236 236 234
280 283 288 294 299 304 309 312 316 318 320 321 321 322 324 326 328 327 322 319 315 306 297 298 301 303 302 301 299 292 284 284 286 286 284 281 279 279 276 275 275 276 274 267 258 253 251 248 245 245 246 246 243 241 239 237 235 233 231 231 232 233 235
279 282 286 290 294 300 305 310 315 318 321 322 323 324 326 327 329 328 320 312 306 301 303 311 313 313 312 312 309 299 291 289 288 287 286 284 281 280 277 277 280 280 279 275 267 260 257 254 249 245 244 245 245 243 243 241 239 237 233 230 229 229 234
277 281 284 287 291 297 303 309 314 317 321 324 326 327 328 329 332 331 319 313 314 311 317 327 328 331 332 330 325 312 301 296 293 289 287 285 285 287 288 288 286 283 280 277 272 267 263 260 258 253 247 245 246 244 241 238 238 239 238 235 233 230 232
275 278 281 284 289 295 302 308 313 318 323 326 328 329 330 330 335 333 324 334 342 330 329 337 344 353 355 349 347 339 325 315 307 298 292 291 290 287 283 282 281 277 274 275 274 271 265 259 258 257 252 247 244 242 237 233 232 236 239 240 239 235 230
272 275 278 282 287 294 301 307 313 317 323 327 327 331 333 331 333 333 332 6 36 329 334 348 354 355 354 351 349 348 346 340 329 317 311 305 292 276 274 276 276 272 270 273 274 270 266 262 258 258 257 251 244 239 237 234 233 236 240 242 242 241 236
270 272 275 279 285 293 300 306 312 318 325 330 330 332 333 329 324 322 319 295 237 275 306 315 328 339 344 345 347 350 352 349 342 336 326 304 267 280 297 287 274 277 281 282 277 267 260 262 263 263 265 260 250 242 238 239 240 241 243 243 243 246 247
267 268 271 277 285 294 301 307 315 323 330 334 334 332 332 330 322 311 299 285 272 272 283 298 318 336 346 351 356 2 7 6 3 4 358 330 305 333 336 318 282 280 282 274 275 265 252 254 267 275 274 269 258 245 241 244 249 253 252 246 246 251 248
264 265 269 276 285 295 304 312 320 328 334 336 335 335 338 340 335 323 310 298 292 293 303 313 327 351 8 10 11 14 18 18 14 13 13 8 359 350 353 355 335 320 323 184 303 305 256 233 57 22 301 277 261 246 242 245 250 261 264 247 244 247 238
259 262 268 277 287 297 306 313 321 330 336 336 335 338 346 350 346 341 336 332 331 334 339 345 358 15 19 16 15 18 21 15 9 14 24 29 31 23 19 30 47 60 65 74 37 13 333 154 83 77 85 92 191 199 185 224 251 266 286 255 247 250 243
253 259 270 279 286 292 295 306 321 329 332 336 336 339 345 350 352 356 6 15 15 5 359 3 12 15 15 15 21 27 26 14 12 24 32 37 41 42 48 63 79 75 59 37 8 5 357 326 316 316 0 40 71 151 140 122 121 144 335 299 282 270 261
247 256 265 272 276 276 281 302 323 326 328 334 337 338 341 346 353 6 20 27 23 10 4 9 17 19 21 27 36 41 38 34 37 41 39 31 26 31 52 64 53 39 35 26 14 7 2 351 335 317 302 307 313 231 218 234 244 242 251 263 265 257 259
248 254 257 262 265 266 275 300 320 327 330 333 336 338 337 337 345 1 17 25 25 22 22 23 26 29 29 34 39 38 35 37 40 44 43 32 19 16 20 7 358 2 10 16 14 5 354 347 341 333 321 311 304 293 278 271 268 266 263 262 261 260 260
254 258 263 270 272 271 277 293 309 322 330 336 343 345 337 330 340 357 12 21 24 24 24 22 22 23 21 24 26 22 22 27 29 32 34 26 17 16 14 1 353 353 347 340 332 321 315 316 318 319 316 311 308 305 300 293 286 282 279 275 273 270 268